Regional Weather Roundup
Issued by NWS Raleigh/Durham, NC

Home | Current Version | Previous Version | Text Only | Print | Product List | Glossary On
Versions: 1 2 3 4 5 6 7 8 9 10 11 12 13 14 15 16 17 18 19 20 21 22 23 24 25 26 27 28 29 30 31 32 33 34 35 36 37 38 39 40 41 42 43 44 45 46 47 48 49 50
000
ASUS42 KRAH 102310
RWRRAH
NORTH CAROLINA WEATHER ROUNDUP
NATIONAL WEATHER SERVICE RALEIGH NC
700 PM EDT THU JUL 10 2014

NOTE: "FAIR" INDICATES FEW OR NO CLOUDS BELOW 12,000 FEET WITH NO
SIGNIFICANT WEATHER AND/OR OBSTRUCTIONS TO VISIBILITY.

NCZ001-053-055-056-065-067-110000-
WESTERN NORTH CAROLINA

CITY           SKY/WX    TMP DP  RH WIND       PRES   REMARKS
ASHEVILLE      MOSUNNY   74  65  73 S5        30.12F
JEFFERSON      LGT RAIN  71  57  61 CALM      30.17S
MORGANTON      MOSUNNY   74  65  74 CALM      30.12F
HICKORY        MOSUNNY   74  68  81 CALM      30.07S
RUTHERFORDTON  MOSUNNY   76  68  76 CALM      30.08R
MOUNT AIRY     PTSUNNY   79  69  72 E3        30.07S
BOONE          PTSUNNY   70  65  84 CALM      30.17S
$$

NCZ021-022-025-041-071-084-088-110000-
CENTRAL NORTH CAROLINA

CITY           SKY/WX    TMP DP  RH WIND       PRES   REMARKS
CHARLOTTE      CLOUDY    79  66  64 NE7       30.06S
GREENSBORO     PTSUNNY   82  67  60 E7        30.06R
WINSTON-SALEM  PTSUNNY   83  65  54 N5        30.07R
RALEIGH-DURHAM TSTM      74  68  81 SE9       30.08R
FORT BRAGG     LGT RAIN  73  72  94 SE2       30.06R
FAYETTEVILLE   LGT RAIN  73  70  90 SW5       30.06R
BURLINGTON     CLOUDY    82  66  58 NE6       30.06R
LAURINBURG     LGT RAIN  72  71  97 NE3       30.06F
$$

NCZ011-015-027-028-043-044-047-080-103-110000-
NORTHEASTERN NORTH CAROLINA

CITY           SKY/WX    TMP DP  RH WIND       PRES   REMARKS
ROCKY MT-WILSO LGT RAIN  73  71  93 SW5       30.10R FOG
GREENVILLE     LGT RAIN  70  70 100 CALM      30.10R
WASHINGTON     CLOUDY   N/A N/A N/A E5        30.09F
ELIZABETH CITY LGT RAIN  73  70  90 CALM      30.09R
MANTEO         NOT AVBL
CAPE HATTERAS  PTSUNNY   83  77  82 SW12G21   30.08R
$$

NCZ078-087-090-091-093-098-101-110000-
SOUTHEASTERN NORTH CAROLINA

CITY           SKY/WX    TMP DP  RH WIND       PRES   REMARKS
LUMBERTON      TSTM      73  71  93 CALM      30.05R FOG
GOLDSBORO      LGT RAIN  73  72  98 E3        30.08R
KINSTON        LGT RAIN  73  72  94 N3        30.10R
KENANSVILLE    CLOUDY    73  70  90 CALM      30.10R
NEW BERN       TSTM      73  72  94 NW10      30.11R VSB 1/2
CHERRY POINT   CLOUDY    82  75  79 SW9       30.08R
BEAUFORT       CLOUDY    83  76  79 SW14G23   30.08R
JACKSONVILLE   CLOUDY    83  76  79 VRB3      30.07R
WILMINGTON     PTSUNNY   84  75  74 S10       30.05R
$$




USA.gov is the U.S. government's official web portal to all federal, state and local government web resources and services.